RH
65 67 70 70 72 77 79 79 79 79 78 76 77 82 82 84 45 50 59 59 74 76 78 79 78 76 75 72 74 76 77 81 81
65 73 66 67 72 74 75 79 81 80 80 78 80 82 84 59 48 48 52 71 77 76 74 75 76 76 75 74 73 76 80 82 81
78 81 76 77 79 74 74 76 80 81 83 83 83 86 88 64 50 50 54 80 76 72 72 73 74 75 76 76 75 75 77 82 83
76 74 78 80 82 81 82 83 84 84 84 84 86 87 85 60 58 46 66 87 78 74 72 69 69 72 73 78 77 77 76 80 87
73 68 79 80 81 82 81 84 84 85 86 86 85 86 83 56 54 65 74 81 76 72 70 68 66 68 72 77 77 76 76 77 80
58 81 80 80 81 81 79 82 85 86 87 84 84 87 60 60 62 70 87 78 73 71 70 68 68 68 73 77 80 83 85 84 87
54 69 73 72 71 79 80 82 82 82 84 83 78 72 62 64 74 76 87 78 72 75 76 75 72 70 72 75 81 85 87 83 78
46 47 48 52 66 53 58 63 68 70 75 79 78 78 76 89 90 88 89 82 79 74 74 75 74 71 75 84 84 85 85 80 80
43 46 49 49 50 50 53 57 58 60 63 64 77 83 88 92 90 90 91 89 85 79 76 78 76 77 83 86 80 85 79 79 79
45 44 46 47 46 45 45 47 54 59 67 71 72 79 84 89 94 94 90 90 89 87 83 78 81 79 84 81 82 78 78 74 78
47 44 43 41 42 43 49 51 50 53 60 72 74 75 80 81 85 91 93 89 89 89 87 87 82 82 84 82 79 78 75 77 73
41 40 38 40 39 42 43 46 52 57 56 60 63 64 68 73 76 79 82 84 86 89 89 89 87 85 84 80 75 74 75 78 73
36 38 40 41 39 42 45 46 49 50 52 56 60 61 60 60 63 68 72 74 76 81 88 88 88 87 84 83 82 79 80 77 78
34 36 38 38 42 46 46 50 48 53 52 51 56 56 58 57 55 60 64 68 71 70 79 84 86 86 87 86 84 80 77 78 78
34 36 38 36 40 42 50 55 55 52 50 45 54 56 54 54 55 54 52 58 63 67 70 75 75 83 84 84 83 82 75 77 80
35 36 37 38 40 42 38 44 53 55 56 59 62 61 58 58 56 55 55 56 56 59 63 67 71 71 80 84 83 83 77 78 79
36 37 38 38 42 42 42 41 47 48 50 50 53 63 64 60 56 57 54 56 57 58 57 59 62 68 70 81 82 82 77 76 78
43 41 40 42 42 48 48 50 48 54 51 52 54 53 55 50 56 56 54 52 54 55 55 55 54 59 64 71 80 80 78 75 76
48 47 43 44 44 47 48 48 51 52 57 54 48 52 52 54 57 57 56 51 50 54 54 54 52 53 58 63 79 78 78 74 75
47 46 46 47 49 51 50 52 51 52 49 55 53 50 53 48 53 53 58 52 53 53 55 54 53 51 54 55 69 76 73 76 75
Wind_Speed
4 4 4 4 4 2 4 4 5 5 2 3 3 3 3 7 2 3 5 3 8 5 4 7 6 4 4 2 2 5 8 3 6
3 2 1 3 2 3 3 5 4 4 4 4 4 3 3 8 5 2 4 9 7 5 4 4 5 3 4 3 4 5 7 9 8
9 12 9 8 9 5 6 7 7 6 7 7 5 3 4 6 3 4 3 9 6 5 3 5 4 3 3 3 3 5 7 6 7
7 9 12 12 12 11 12 11 11 7 8 6 5 2 6 6 3 3 7 10 7 7 6 2 1 3 3 3 3 4 5 7 10
9 10 13 12 10 10 11 11 9 8 6 6 3 4 7 3 3 8 9 9 7 6 5 2 1 1 3 3 3 4 5 6 9
3 6 8 8 7 8 7 7 8 6 3 4 4 7 2 5 6 7 13 11 9 7 6 4 3 1 2 4 6 13 16 16 19
5 4 2 3 2 4 4 5 7 6 4 3 7 7 9 5 9 8 15 14 11 11 10 8 5 3 2 4 8 11 16 16 16
3 3 2 2 2 2 2 3 3 6 4 6 7 9 8 7 7 14 20 16 15 12 13 11 8 2 6 11 10 11 13 15 14
3 3 3 3 2 4 4 4 5 6 7 7 9 8 7 5 5 11 20 22 22 16 15 15 13 6 10 12 12 12 11 12 12
4 4 4 3 4 4 4 4 5 6 10 8 8 9 9 9 4 4 18 21 22 24 22 16 16 9 11 8 10 9 9 9 9
3 3 4 4 4 4 4 4 4 5 7 7 8 9 7 8 7 5 6 18 21 22 22 26 20 13 7 4 7 8 5 3 1
3 3 4 4 3 3 4 5 5 5 6 7 6 6 7 7 8 6 5 6 16 20 21 22 23 25 17 10 5 4 3 4 6
4 4 4 4 4 3 4 5 5 5 5 5 5 5 6 7 8 7 7 6 6 11 18 20 20 21 21 21 19 11 6 6 8
4 4 4 3 3 4 4 4 5 5 5 6 5 5 5 6 6 8 8 9 8 6 12 16 19 19 21 21 20 19 15 14 14
4 4 4 3 3 4 4 6 5 5 5 6 6 5 5 5 6 7 7 7 8 7 8 6 8 17 19 20 20 21 18 17 23
4 4 4 3 4 3 4 4 5 5 3 3 4 4 5 6 5 6 6 7 7 8 8 6 5 6 16 20 22 23 20 21 22
4 4 4 3 3 4 3 1 4 4 3 1 1 4 4 4 4 4 4 6 5 7 8 8 8 7 6 13 21 22 20 21 22
4 4 4 4 3 3 4 3 2 3 3 4 3 2 2 2 4 4 4 5 5 5 5 7 8 8 7 10 14 21 19 19 19
5 5 5 4 3 3 3 3 2 1 3 2 3 4 3 1 3 4 3 3 4 5 4 5 6 7 6 11 18 19 18 17 18
6 5 5 5 4 4 4 4 4 3 3 3 2 2 2 1 2 1 5 4 3 3 3 3 4 5 6 6 10 15 16 17 17
Wind_Direction
0 344 327 314 326 334 39 36 33 44 73 65 54 74 342 298 298 17 95 336 67 42 5 353 9 1 324 243 217 158 149 201 142
2 317 324 291 334 336 47 59 44 40 45 69 67 60 322 301 51 341 9 60 48 8 355 348 319 328 326 290 241 219 185 182 167
24 48 56 42 35 24 39 30 52 36 49 53 55 46 312 278 58 34 55 41 8 357 322 317 290 297 307 308 277 242 221 213 198
17 47 37 36 32 43 48 41 47 49 55 52 53 21 296 307 28 345 59 20 353 351 347 305 292 273 277 318 318 291 265 205 234
7 355 22 25 26 27 45 41 42 30 55 59 42 268 273 355 18 54 28 355 344 346 5 23 51 89 46 54 31 8 337 298 266
118 48 24 31 30 40 36 35 42 354 32 49 327 297 324 55 49 53 9 4 17 12 341 345 309 235 125 105 78 68 49 44 27
60 105 168 70 42 98 86 84 74 12 24 8 1 9 9 31 56 44 15 17 22 35 21 1 343 280 214 120 80 74 69 54 37
181 117 128 74 336 55 132 144 92 82 60 44 35 28 29 42 48 33 30 24 27 28 27 26 5 349 87 108 99 98 86 72 62
86 76 58 60 46 67 56 63 67 78 57 62 61 54 44 42 49 36 35 32 33 33 34 27 21 97 109 108 105 103 83 90 95
76 67 63 51 48 34 57 74 81 74 59 49 55 57 55 51 47 48 41 39 37 37 37 36 32 66 88 104 110 95 102 112 111
68 71 66 59 44 55 62 52 72 82 91 74 62 67 61 59 56 48 39 44 41 41 42 40 41 39 37 76 91 92 56 138 325
82 82 79 61 63 75 87 81 88 81 80 81 86 77 73 69 61 55 50 41 42 43 44 43 41 38 39 39 39 28 358 303 300
88 83 67 40 45 67 69 90 93 86 86 91 83 85 74 68 64 59 53 48 40 44 44 43 40 37 34 31 33 32 347 301 292
98 87 76 67 67 57 77 78 87 88 86 91 80 71 74 74 70 67 61 55 47 42 46 48 42 40 37 33 25 21 20 13 353
105 93 79 77 87 82 76 90 64 77 87 86 81 70 73 74 63 62 62 57 53 49 46 45 41 41 37 34 30 22 30 24 20
103 98 91 78 81 85 84 87 108 86 48 140 120 101 83 67 64 63 55 49 53 42 36 33 37 31 33 28 29 23 33 33 33
119 113 98 95 99 85 80 96 109 91 46 338 330 177 157 107 65 63 64 59 50 45 43 34 29 27 36 26 22 20 27 36 34
119 112 105 91 83 84 70 58 1 118 73 49 340 222 62 145 132 70 61 64 61 59 45 44 33 25 36 28 15 14 18 32 35
137 131 122 109 99 98 83 57 52 292 122 119 53 39 19 309 168 141 112 78 69 56 55 47 50 35 31 36 19 12 13 27 30
151 145 137 128 115 95 86 78 61 35 91 57 122 74 55 40 312 255 145 149 101 70 55 56 52 44 53 40 31 18 12 19 23